Flag for French Guiana Past Weather in Saint-Laurent-du-Maroni, French Guiana — Yesterday and Last 2 Weeks

Now
82 °F

Sprinkles. Partly sunny.


Feels Like: 89 °F
Forecast: 75 / 85 °F
Wind: 14 mph from East

Location: Johan A. Pengel

Current Time: Jan 17, 2017 at 2:29:05 pm

Latest Report: Jan 17, 2017 at 2:00 pm


Visibility: 5 mi

Pressure: 29.83 "Hg

Humidity: 79%

Dew Point: 75 °F

Location of Saint-Laurent-du-MaroniLocation

Past Weather in Saint-Laurent-du-Maroni — Graph

°F

Saint-Laurent-du-Maroni Temperature Yesterday

Maximum temperature yesterday: 86 °F (at 1:00 pm)
Minimum temperature yesterday: 73 °F (at 1:00 am)
Average temperature yesterday: 76 °F

High & Low Weather Summary for the Past Weeks

 TemperatureHumidityPressure
High90 °F (Jan 10, 3:00 pm)100% (Jan 3, 12:00 am)29.98 "Hg (Jan 3, 12:00 am)
Low70 °F (Jan 10, 5:00 am)27% (Jan 16, 3:00 am)29.77 "Hg (Jan 10, 4:00 pm)
Average77 °F88%29.87 "Hg
* Reported Jan 2 1:00 pm — Jan 17 1:00 pm, Saint-Laurent-du-Maroni, Weather by CustomWeather, © 2017

Note: Actual official high and low records may vary slightly from our data, if they occured in-between our weather recording intervals... More about our weather records

Advertising

Saint-Laurent-du-Maroni Weather History for the Previous 24 Hours

Scroll right to see more
 ConditionsComfort  
Time TempWeatherWind HumidityBarometerVisibility
1:00 pm
Tue, Jan 17
86 °FScattered clouds.10 mph66%29.86 "HgN/A
12:00 pm84 °FPartly sunny.8 mph70%29.89 "HgN/A
11:00 am82 °FScattered clouds.7 mph79%29.89 "HgN/A
10:00 am77 °FPassing clouds.6 mph94%29.92 "HgN/A
9:00 am75 °FScattered clouds.5 mph100%29.92 "HgN/A
8:20 am75 °FScattered clouds.2 mph94%29.89 "Hg4 mi
8:00 am73 °FFog.1 mph100%29.89 "Hg1 mi
7:09 am73 °FFog.2 mph100%29.83 "Hg0 mi
7:00 am73 °FFog.3 mph100%29.83 "Hg1 mi
6:00 am73 °FFog.1 mph100%29.83 "Hg1 mi
5:33 am73 °FFog.5 mph100%29.83 "Hg1 mi
5:00 am73 °FFog.2 mph100%29.83 "Hg6 mi
4:00 am73 °FPassing clouds.2 mph100%29.83 "HgN/A
3:00 am73 °FPassing clouds.1 mph100%29.83 "HgN/A
2:00 am75 °FPassing clouds.1 mph94%29.83 "HgN/A
1:00 am75 °FPassing clouds.1 mph94%29.86 "HgN/A
12:00 am75 °FPassing clouds.5 mph100%29.86 "HgN/A
11:00 pm
Mon, Jan 16
75 °FPassing clouds.3 mph100%29.86 "HgN/A
9:00 pm75 °FPassing clouds.No wind100%29.86 "HgN/A
8:00 pm75 °FPassing clouds.5 mph100%29.83 "HgN/A
7:00 pm75 °FPassing clouds.No wind100%29.83 "HgN/A
6:00 pm75 °FSprinkles. Scattered clouds.5 mph100%29.80 "HgN/A
5:00 pm75 °FSprinkles. Broken clouds.5 mph94%29.80 "HgN/A
4:00 pm75 °FSprinkles. Scattered clouds.5 mph94%29.80 "HgN/A
3:00 pm75 °FThunderstorms. Broken clouds.9 mph100%29.80 "Hg4 mi
2:13 pm77 °FThunderstorms. Broken clouds.10 mph94%29.83 "Hg2 mi
2:00 pm79 °FSprinkles. Partly sunny.16 mph89%29.83 "Hg4 mi
Weather by CustomWeather, © 2017

See weather overviewHow to use our weather pages